Location: Bothwell
(42.3833°S, 147.0000°E)
Time: 20:25:34
(UTC+11:00)

AO-85 - Pass Details

Date: 01 October 2022
Orbit: 513 x 757 km, 64.8° (Epoch: 24 November)

Event Time Altitude Azimuth Distance (km) Brightness Sun altitude
Rises 04:03:08 0° 206° (SSW) 3,083 ? -19.3°
Reaches altitude 10° 04:05:44 10° 195° (SSW) 2,200 ? -18.8°
Maximum altitude 04:10:07 29° 135° (SE) 1,344 ? -18.1°
Drops below altitude 10° 04:14:39 10° 75° (ENE) 2,277 ? -17.3°
Sets 04:17:22 0° 63° (ENE) 3,210 ? -16.8°
